• En España
  • Lista de países
  • Para 7 días
  • Temperatura del agua
  • Mapa Satelital
  • El tiempo en el mapa
  • Informadores
  • user-avatar
    Iniciar sesión

    Tiempo cada hora Brodilovka

    Hoy, 18 Junio, Lunes

    Tiempo Temperatura Precipitaciones Viento Presión Humedad
    00:00 +15°C° 0 mm 1 mps 745 mmHg 81%
    01:00 +14°C° 0 mm 1 mps 745 mmHg 82%
    02:00 +14°C° 0 mm 1 mps 745 mmHg 82%
    03:00 +14°C° 0 mm 1 mps 745 mmHg 81%
    04:00 +15°C° 0 mm 1 mps 745 mmHg 81%
    05:00 +15°C° 0 mm 1 mps 745 mmHg 80%
    06:00 +16°C° 0 mm 1 mps 745 mmHg 79%
    07:00 +19°C° 0 mm 1 mps 745 mmHg 74%
    08:00 +21°C° 0 mm 1 mps 745 mmHg 68%
    09:00 +23°C° 0 mm 1 mps 745 mmHg 62%
    10:00 +24°C° 0 mm 1 mps 745 mmHg 57%
    11:00 +24°C° 0 mm 1 mps 745 mmHg 52%
    12:00 +25°C° 0 mm 1 mps 745 mmHg 48%
    13:00 +26°C° 0 mm 1 mps 745 mmHg 47%
    14:00 +26°C° 0 mm 1 mps 745 mmHg 46%
    15:00 +26°C° 0 mm 1 mps 745 mmHg 45%
    16:00 +26°C° 0 mm 1 mps 745 mmHg 48%
    17:00 +24°C° 0 mm 0 mps 744 mmHg 51%
    18:00 +24°C° 0 mm 0 mps 744 mmHg 54%
    19:00 +22°C° 0 mm 0 mps 744 mmHg 58%
    20:00 +22°C° 0 mm 1 mps 744 mmHg 62%
    21:00 +20°C° 0 mm 1 mps 744 mmHg 66%
    22:00 +19°C° 0 mm 1 mps 744 mmHg 67%
    23:00 +18°C° 0 mm 1 mps 744 mmHg 69%

    Mañana, 19 Junio, Martes

    Tiempo Temperatura Precipitaciones Viento Presión Humedad
    00:00 +18°C° 0 mm 1 mps 744 mmHg 71%
    01:00 +16°C° 0 mm 1 mps 744 mmHg 73%
    02:00 +16°C° 0 mm 1 mps 744 mmHg 74%
    03:00 +16°C° 0 mm 1 mps 744 mmHg 76%
    04:00 +16°C° 0 mm 2 mps 744 mmHg 77%
    05:00 +17°C° 0 mm 2 mps 744 mmHg 79%
    06:00 +17°C° 0 mm 2 mps 744 mmHg 80%
    07:00 +19°C° 0 mm 2 mps 744 mmHg 77%
    08:00 +20°C° 0 mm 2 mps 744 mmHg 73%
    09:00 +22°C° 0 mm 3 mps 744 mmHg 70%
    10:00 +22°C° 0,3 mm 3 mps 744 mmHg 71%
    11:00 +24°C° 0,3 mm 3 mps 744 mmHg 72%
    12:00 +24°C° 0,3 mm 3 mps 744 mmHg 73%
    13:00 +23°C° 0,3 mm 4 mps 744 mmHg 72%
    14:00 +25°C° 0,3 mm 4 mps 743 mmHg 71%
    15:00 +25°C° 0,3 mm 5 mps 743 mmHg 71%
    16:00 +25°C° 0,3 mm 4 mps 743 mmHg 73%
    17:00 +25°C° 0,3 mm 4 mps 742 mmHg 75%
    18:00 +25°C° 0,3 mm 4 mps 742 mmHg 77%
    19:00 +23°C° 0,1 mm 4 mps 742 mmHg 82%
    20:00 +21°C° 0,1 mm 3 mps 742 mmHg 87%
    21:00 +20°C° 0,1 mm 3 mps 742 mmHg 92%
    22:00 +19°C° 0 mm 3 mps 742 mmHg 93%
    23:00 +19°C° 0 mm 3 mps 742 mmHg 94%

    Pasado mañana, 20 Junio, Miércoles

    Tiempo Temperatura Precipitaciones Viento Presión Humedad
    00:00 +18°C° 0 mm 3 mps 742 mmHg 95%
    01:00 +18°C° 0 mm 3 mps 742 mmHg 95%
    02:00 +18°C° 0 mm 3 mps 742 mmHg 96%
    03:00 +17°C° 0 mm 3 mps 742 mmHg 96%
    04:00 +18°C° 0 mm 3 mps 742 mmHg 95%
    05:00 +18°C° 0 mm 3 mps 742 mmHg 94%
    06:00 +18°C° 0 mm 3 mps 742 mmHg 92%
    07:00 +19°C° 0 mm 4 mps 742 mmHg 87%
    08:00 +20°C° 0 mm 4 mps 743 mmHg 82%
    09:00 +22°C° 0 mm 4 mps 743 mmHg 76%
    10:00 +22°C° 0 mm 5 mps 743 mmHg 73%
    11:00 +23°C° 0 mm 5 mps 743 mmHg 70%
    12:00 +23°C° 0 mm 6 mps 743 mmHg 67%
    13:00 +23°C° 0 mm 6 mps 743 mmHg 65%
    14:00 +24°C° 0 mm 6 mps 743 mmHg 64%
    15:00 +24°C° 0 mm 6 mps 743 mmHg 62%
    16:00 +23°C° 0 mm 5 mps 743 mmHg 64%
    17:00 +23°C° 0 mm 4 mps 743 mmHg 66%
    18:00 +23°C° 0 mm 4 mps 743 mmHg 68%
    19:00 +21°C° 0 mm 3 mps 743 mmHg 72%
    20:00 +19°C° 0 mm 3 mps 743 mmHg 76%
    21:00 +17°C° 0 mm 2 mps 743 mmHg 80%
    22:00 +17°C° 0 mm 2 mps 744 mmHg 82%
    23:00 +16°C° 0 mm 2 mps 744 mmHg 84%

    21 Junio, Jueves

    Tiempo Temperatura Precipitaciones Viento Presión Humedad
    00:00 +14°C° 0 mm 3 mps 744 mmHg 86%
    01:00 +14°C° 0 mm 3 mps 744 mmHg 88%
    02:00 +13°C° 0 mm 3 mps 744 mmHg 90%
    03:00 +13°C° 0 mm 3 mps 744 mmHg 92%
    04:00 +13°C° 0 mm 3 mps 744 mmHg 91%
    05:00 +14°C° 0 mm 3 mps 744 mmHg 89%
    06:00 +14°C° 0 mm 3 mps 744 mmHg 88%
    07:00 +17°C° 0 mm 3 mps 744 mmHg 83%
    08:00 +18°C° 0 mm 3 mps 744 mmHg 78%
    09:00 +20°C° 0 mm 3 mps 744 mmHg 72%
    10:00 +21°C° 0 mm 3 mps 744 mmHg 68%
    11:00 +22°C° 0 mm 4 mps 744 mmHg 64%
    12:00 +23°C° 0 mm 4 mps 744 mmHg 60%
    13:00 +23°C° 0 mm 4 mps 743 mmHg 60%
    14:00 +25°C° 0 mm 4 mps 743 mmHg 59%
    15:00 +25°C° 0 mm 4 mps 743 mmHg 59%
    16:00 +25°C° 0 mm 3 mps 743 mmHg 62%
    17:00 +25°C° 0 mm 3 mps 743 mmHg 64%
    18:00 +25°C° 0 mm 2 mps 743 mmHg 66%
    19:00 +23°C° 0 mm 2 mps 743 mmHg 71%
    20:00 +21°C° 0 mm 2 mps 743 mmHg 76%
    21:00 +20°C° 0 mm 1 mps 743 mmHg 81%
    22:00 +19°C° 0 mm 1 mps 743 mmHg 83%
    23:00 +19°C° 0 mm 1 mps 743 mmHg 85%

    22 Junio, Viernes

    Tiempo Temperatura Precipitaciones Viento Presión Humedad
    00:00 +18°C° 0 mm 1 mps 743 mmHg 88%
    01:00 +17°C° 0 mm 2 mps 743 mmHg 88%
    02:00 +16°C° 0 mm 2 mps 743 mmHg 89%
    03:00 +16°C° 0 mm 2 mps 743 mmHg 90%
    04:00 +16°C° 0 mm 2 mps 743 mmHg 89%
    05:00 +17°C° 0 mm 2 mps 743 mmHg 88%
    06:00 +17°C° 0 mm 2 mps 743 mmHg 87%
    07:00 +19°C° 0 mm 3 mps 742 mmHg 82%
    08:00 +21°C° 0 mm 3 mps 742 mmHg 77%
    09:00 +23°C° 0 mm 4 mps 742 mmHg 72%
    10:00 +25°C° 0 mm 4 mps 742 mmHg 69%
    11:00 +25°C° 0 mm 5 mps 742 mmHg 66%
    12:00 +26°C° 0 mm 5 mps 742 mmHg 63%
    13:00 +27°C° 0 mm 5 mps 741 mmHg 63%
    14:00 +27°C° 0 mm 5 mps 741 mmHg 62%
    15:00 +28°C° 0 mm 5 mps 741 mmHg 62%
    16:00 +27°C° 0 mm 4 mps 740 mmHg 65%
    17:00 +27°C° 0 mm 4 mps 740 mmHg 68%
    18:00 +27°C° 0 mm 4 mps 740 mmHg 71%
    19:00 +25°C° 0 mm 4 mps 740 mmHg 76%
    20:00 +23°C° 0 mm 4 mps 740 mmHg 80%
    21:00 +21°C° 0 mm 3 mps 740 mmHg 85%
    22:00 +21°C° 0 mm 3 mps 739 mmHg 87%
    23:00 +20°C° 0 mm 3 mps 739 mmHg 89%

    23 Junio, Sábado

    Tiempo Temperatura Precipitaciones Viento Presión Humedad
    00:00 +20°C° 0 mm 3 mps 739 mmHg 92%
    01:00 +20°C° 0 mm 4 mps 738 mmHg 92%
    02:00 +20°C° 0 mm 4 mps 738 mmHg 93%
    03:00 +19°C° 0 mm 4 mps 738 mmHg 93%
    04:00 +20°C° 0 mm 4 mps 738 mmHg 92%
    05:00 +20°C° 0 mm 4 mps 738 mmHg 90%
    06:00 +20°C° 0 mm 4 mps 738 mmHg 89%
    07:00 +22°C° 0,1 mm 4 mps 738 mmHg 85%
    08:00 +23°C° 0,1 mm 4 mps 738 mmHg 82%
    09:00 +25°C° 0,1 mm 4 mps 738 mmHg 78%
    10:00 +25°C° 0,9 mm 5 mps 738 mmHg 75%
    11:00 +26°C° 0,9 mm 5 mps 738 mmHg 73%
    12:00 +27°C° 0,9 mm 6 mps 738 mmHg 70%
    13:00 +26°C° 1,4 mm 5 mps 738 mmHg 73%
    14:00 +26°C° 1,4 mm 5 mps 738 mmHg 75%
    15:00 +25°C° 1,4 mm 4 mps 738 mmHg 78%
    16:00 +23°C° 1 mm 4 mps 738 mmHg 81%
    17:00 +22°C° 1 mm 4 mps 738 mmHg 85%
    18:00 +21°C° 1 mm 3 mps 738 mmHg 88%
    19:00 +20°C° 0,2 mm 4 mps 738 mmHg 90%
    20:00 +19°C° 0,2 mm 4 mps 739 mmHg 92%
    21:00 +18°C° 0,2 mm 4 mps 739 mmHg 94%
    22:00 +17°C° 0,1 mm 4 mps 739 mmHg 94%
    23:00 +15°C° 0,1 mm 4 mps 739 mmHg 94%
    Mostrar más